[[{"header":{"parameterUnit":"m.s-1","parameterCategory":1,"la1":30.2992,"la2":30.254,"lo1":-89.0895,"lo2":-89.0443,"dy":0.0025,"dx":0.0025,"nx":19,"ny":19,"refTime":"2026-04-29T09:00:00:Z","depth":0,"parameterNumber":2,"parameterNumberName":"U-component_of_WINDS"},"data":[0,0,0,2.2048,2.2051,2.2219,2.2219,2.2428,2.2429,0,0,0,0,0,0,0,0,0,0,0,2.1993,2.1995,2.2047,2.2051,2.2218,2.2219,2.2427,2.2429,0,0,0,0,0,0,0,0,0,0,0,2.1993,2.1994,2.1996,2.2052,2.2218,2.2219,2.2427,2.2303,0,0,0,0,0,0,0,0,0,0,2.2141,2.2087,2.1994,2.1996,2.2053,2.2218,2.2219,2.2297,2.2311,2.2349,0,2.2381,0,2.2408,2.2443,2.2444,0,0,0,2.2055,2.2075,2.2124,2.1996,2.2054,2.2218,2.2144,2.2305,2.232,2.2367,2.2384,2.2392,2.2412,2.2444,2.2445,2.2648,2.2649,0,0,2.2046,2.2021,2.2114,2.2134,2.2106,2.2139,2.2149,2.2314,2.2331,2.2384,2.2397,2.2415,2.2446,2.2447,2.2647,2.2648,0,0,0,2.2017,2.2015,2.206,2.2125,2.2156,2.2143,2.2156,2.2324,2.2341,2.2399,2.2417,2.2447,2.2449,2.2647,2.2648,2.266,0,0,0,2.2011,2.1998,2.2056,2.2042,2.2152,2.2242,2.2162,2.2329,2.2349,2.2416,2.2447,2.2451,2.2646,2.2647,2.2658,2.267,0,0,0,2.1984,2.1995,2.2017,2.2041,2.2112,2.224,2.2266,2.2334,2.236,2.2444,2.2452,2.2645,2.2647,2.2656,2.2667,2.2715,0,0,0,2.1948,2.2028,2.2017,2.2113,2.211,2.2246,2.2265,2.2368,2.2441,2.2448,2.2646,2.2648,2.2655,2.2665,2.2712,2.2749,2.2763,0,0,2.2035,2.2037,2.2096,2.2091,2.2221,2.2222,2.2356,2.2447,2.2479,2.259,2.2595,2.2658,2.2667,2.2714,2.2848,2.2858,0,0,0,2.2115,2.2156,2.2196,2.2263,2.2334,2.2395,2.2468,2.2502,2.2597,2.2531,2.269,2.2696,2.2725,2.2743,2.2752,2.2778,2.2656,2.2655,2.2655,2.2202,2.2236,2.2334,2.2388,2.2453,2.2527,2.2583,2.2641,2.2659,2.2695,2.2728,2.2805,2.2826,2.2833,2.2859,2.2752,2.2752,2.2752,2.2752,2.2331,2.2394,2.2412,2.2514,2.2549,2.2636,2.271,2.2719,2.2804,2.2784,2.2811,2.2784,2.2843,2.2868,2.2753,2.2753,2.2753,2.2753,2.2752,2.2391,2.2427,2.2465,2.2565,2.2638,2.269,2.277,2.2801,2.2831,2.2858,2.2895,2.2895,2.2897,2.2873,2.2874,2.2874,2.2874,2.2874,2.2874,2.2438,2.248,2.2543,2.2623,2.2669,2.2734,2.2808,2.2855,2.2915,2.2931,2.2931,2.2943,2.2843,2.2816,2.2879,2.2878,2.2877,2.2877,2.2877,2.2554,2.2532,2.2629,2.2675,2.277,2.284,2.2877,2.297,2.3013,2.3052,2.3058,2.2979,2.2984,2.2978,2.2956,2.3051,2.3051,2.3051,2.3051,2.2603,2.2608,2.2714,2.2785,2.2859,2.2901,2.301,2.3068,2.3125,2.3154,2.3145,2.3118,2.311,2.312,2.3111,2.309,2.3218,2.3218,2.3218,2.2676,2.2689,2.2775,2.2828,2.2905,2.297,2.3073,2.3154,2.3215,2.3226,2.3177,2.317,2.3128,2.3112,2.3122,2.3106,2.307,0,0]},{"header":{"parameterUnit":"m.s-1","parameterCategory":1,"la1":30.2992,"la2":30.254,"lo1":-89.0895,"lo2":-89.0443,"dy":0.0025,"dx":0.0025,"nx":19,"ny":19,"refTime":"2026-04-29T09:00:00:Z","depth":0,"parameterNumber":3,"parameterNumberName":"V-component_of_WINDS"},"data":[0,0,0,3.4541,3.4544,3.4663,3.4663,3.4813,3.4814,0,0,0,0,0,0,0,0,0,0,0,3.4507,3.4509,3.4541,3.4544,3.4663,3.4663,3.4813,3.4814,0,0,0,0,0,0,0,0,0,0,0,3.4507,3.4508,3.451,3.4545,3.4662,3.4663,3.4812,3.4723,0,0,0,0,0,0,0,0,0,0,3.4608,3.4579,3.4508,3.451,3.4545,3.4662,3.4663,3.4719,3.4729,3.4759,0,3.4789,0,3.4804,3.4824,3.4825,0,0,0,3.4543,3.457,3.4601,3.451,3.4546,3.4662,3.4609,3.4724,3.4735,3.4772,3.4791,3.4796,3.4806,3.4825,3.4826,3.5011,3.5012,0,0,3.4536,3.4529,3.4594,3.4609,3.4593,3.4605,3.4612,3.4731,3.475,3.4791,3.48,3.4809,3.4826,3.4828,3.5011,3.5012,0,0,0,3.4518,3.4525,3.4553,3.4603,3.4624,3.4608,3.4617,3.4745,3.4754,3.4801,3.4811,3.4827,3.4829,3.501,3.5011,3.5051,0,0,0,3.4514,3.4514,3.455,3.4547,3.4622,3.4686,3.4628,3.4746,3.476,3.481,3.4827,3.4831,3.5009,3.501,3.5047,3.5071,0,0,0,3.4499,3.4512,3.453,3.4546,3.4597,3.4685,3.4701,3.4749,3.4766,3.4825,3.4831,3.5008,3.501,3.5045,3.5066,3.5118,0,0,0,3.4481,3.4563,3.4531,3.4626,3.4596,3.4709,3.4701,3.4785,3.484,3.4828,3.5009,3.5011,3.5044,3.5063,3.5114,3.516,3.5179,0,0,3.458,3.4575,3.4631,3.4606,3.4723,3.4691,3.4813,3.487,3.4882,3.4967,3.4972,3.5049,3.5066,3.5117,3.5283,3.5298,0,0,0,3.466,3.4701,3.4734,3.4787,3.4834,3.4875,3.4914,3.4935,3.5008,3.4925,3.5081,3.5091,3.5122,3.5144,3.5156,3.5183,3.5021,3.502,3.502,3.4792,3.4803,3.4897,3.4922,3.4973,3.5013,3.5055,3.509,3.5085,3.5122,3.5147,3.5247,3.5273,3.5282,3.531,3.5172,3.5172,3.5172,3.5172,3.4939,3.4998,3.499,3.5079,3.5089,3.5163,3.5203,3.5197,3.5266,3.5229,3.5256,3.5215,3.5298,3.5322,3.5175,3.5175,3.5174,3.5174,3.5174,3.5027,3.5057,3.5082,3.516,3.5218,3.5239,3.5306,3.5313,3.5319,3.5346,3.5374,3.5373,3.5373,3.5359,3.5359,3.5359,3.536,3.536,3.536,3.5108,3.5135,3.5191,3.5247,3.5282,3.5328,3.5367,3.5401,3.544,3.5439,3.5439,3.5431,3.5304,3.5272,3.5365,3.5364,3.5364,3.5363,3.5363,3.5255,3.5222,3.531,3.5345,3.541,3.5467,3.5474,3.5542,3.5571,3.5603,3.5588,3.5494,3.5488,3.5478,3.5452,3.5586,3.5586,3.5586,3.5586,3.5329,3.5327,3.5417,3.5472,3.5527,3.5542,3.5639,3.567,3.5696,3.5714,3.5695,3.5661,3.565,3.5651,3.5637,3.5613,3.5785,3.5785,3.5785,3.5419,3.5423,3.5505,3.5532,3.5583,3.5626,3.5717,3.5779,3.5802,3.5793,3.5728,3.572,3.5664,3.5646,3.5636,3.5615,3.5571,0,0]}]]